Flag for Tuvalu Weather past 2 weeks in Funafuti, Tuvalu

Now
82 °F

Passing clouds.


Feels Like: 89 °F
Forecast: 82 / 89 °F
Wind: 3 mph from North

Location: Funafuti

Current Time: Oct 2, 2014 at 5:44:37 AM

Latest Report: Oct 2, 2014 at 5:00 AM


Visibility: N/A

Pressure: 29.53 "Hg

Humidity: 79%

Dew point: 75 °F

Location of FunafutiLocation

Historic Weather in Funafuti — Graph

°F

Funafuti temperature yesterday

Maximum temperature yesterday: 88 °F (at 11:00 AM)
Minimum temperature yesterday: 82 °F (at 1:00 AM)
Average temperature yesterday: 85 °F

Past Weeks' High & Low Weather Summary

 TemperatureHumidityPressure
High90 °F (Sep 17, 12:00 PM)100% (Sep 29, 9:00 PM)29.89 "Hg (Sep 29, 9:00 PM)
Low75 °F (Sep 27, 8:00 PM)63% (Sep 25, 11:00 AM)29.71 "Hg (Oct 1, 5:00 AM)
Average84 °F80%29.81 "Hg
* Reported Sep 17 4:00 AM — Oct 2 4:00 AM, Funafuti, Weather by CustomWeather, © 2014

Note: Actual official high and low records may vary slightly from our data, if they occured in-between our weather recording intervals... More about our weather records

Advertising

Funafuti weather history for previous 24 hours

 ConditionsComfort  
Time TempWeatherWind HumidityBarometerVisibility
4:00 AM
Oct 2
82 °FPassing clouds.5 mph84%29.74 "HgN/A
3:00 AM82 °FPassing clouds.3 mph84%29.71 "HgN/A
2:00 AM84 °FPassing clouds.10 mph79%29.74 "HgN/A
1:00 AM84 °FPassing clouds.12 mph79%29.74 "HgN/A
12:00 AM84 °FPassing clouds.13 mph79%29.77 "HgN/A
5:00 PM
Oct 1
86 °FScattered showers. Scattered clouds.13 mph75%29.71 "HgN/A
4:00 PM84 °FScattered showers. Partly sunny.12 mph79%29.71 "HgN/A
3:00 PM88 °FScattered showers. Scattered clouds.9 mph70%29.71 "HgN/A
2:00 PM88 °FScattered showers. Scattered clouds.12 mph70%29.74 "HgN/A
1:00 PM88 °FPassing clouds.16 mph70%29.74 "HgN/A
12:00 PM88 °FScattered showers. Scattered clouds.12 mph75%29.77 "HgN/A
11:00 AM88 °FPassing clouds.9 mph75%29.80 "HgN/A
10:00 AM84 °FScattered showers. Scattered clouds.8 mph79%29.83 "HgN/A
9:00 AM86 °FScattered showers. Scattered clouds.6 mph79%29.83 "HgN/A
8:00 AM86 °FScattered showers. Scattered clouds.9 mph75%29.83 "HgN/A
7:00 AM84 °FScattered showers. Scattered clouds.9 mph79%29.80 "HgN/A
6:00 AM84 °FPassing clouds.15 mph74%29.77 "HgN/A
5:00 AM82 °FPassing clouds.16 mph94%29.71 "HgN/A
Weather by CustomWeather, © 2014

See weather overviewHow to use our weather pages